Torna al catalogo

STARLINK-35759

AttivoComunicazioniVLEO
NORAD 69246·PAYLOAD·🇺🇸 United States

Lanciato May 29, 2026 da Cape Canaveral Space Force Station

Loading…

Prossimi Passaggi (prossime 24 ore)

TLE

AggiornatoSource: CelesTrak SupGP

Epoca: Sep 14, 2026, 23:06 UTC

1 69246C 26117J   26257.96298611 -.00064560  00000+0 -19067-2 0  2572
2 69246  53.1572 179.5389 0001239  98.4453  65.2109 15.34435371    12

Traccia STARLINK-35759 in tempo reale con AllMySat

Download on the App Store